Location: Prague
(50.0830°N, 14.4670°E)
Time: 06:23:19
(UTC+01:00)

ITUPSAT 1 - Pass Details

Date: 06 December 2021
Orbit: 701 x 712 km, 98.6° (Epoch: 18 January)

Event Time Altitude Azimuth Distance (km) Brightness Sun altitude
Rises 04:56:02 0° 106° (ESE) 3,103 ? -26.1°
Reaches altitude 10° 04:59:26 10° 80° (E) 2,191 ? -25.5°
Maximum altitude 05:01:39 13° 52° (NE) 1,978 ? -25.2°
Drops below altitude 10° 05:03:52 10° 25° (NNE) 2,200 ? -24.8°
Sets 05:07:17 0° 359° (N) 3,127 ? -24.3°
